Powrót do katalogu

STARLINK-36066

AktywnyŁącznośćVLEO
NORAD 66592·PAYLOAD·🇺🇸 United States

Wystrzelony Nov 22, 2025 z Cape Canaveral Space Force Station

Loading…

Następne Przeloty (najbliższe 24 godziny)

TLE

ŚwieżeSource: CelesTrak SupGP

Epoka: Sep 14, 2026, 22:51 UTC

1 66592C 25270E   26257.95256944  .00059409  00000+0  21516-2 0  2570
2 66592  43.0031  67.5586 0001519 276.8905 258.4291 15.27552006    16

Śledź STARLINK-36066 w czasie rzeczywistym z AllMySat

Download on the App Store